Davenport, IA

1:07 PM CDT on June 25, 2017 (GMT -0500)
Davenport Municipal

Weather History for KDVN - January, 2013

Change the Weather History Date:

Sunday, January 6, 2013

  Actual Average Record
Temperature  
Mean Temperature 21 °F 21 °F  
Max Temperature 28 °F 30 °F 60 °F (2008)
Min Temperature 13 °F 13 °F -16 °F (2014)
Degree Days  
Heating Degree Days 44 44  
Month to date heating degree days 274 263  
Since 1 July heating degree days 2716 2843  
Cooling Degree Days 0 0  
Month to date cooling degree days 0 0  
Year to date cooling degree days 0 0  
Moisture  
Dew Point 15 °F    
Average Humidity 80    
Maximum Humidity 91    
Minimum Humidity 68    
Precipitation  
Precipitation 0.00 in 0.02 in 0.40 in (1969)
Month to date precipitation T 0.16  
Year to date precipitation T 0.16  
Snow  
Snow 0.00 in - - ()
Month to date snowfall T  
Since 1 July snowfall 5.6  
Snow Depth T in    
Sea Level Pressure  
Sea Level Pressure 30.21 in    
Wind  
Wind Speed 12 mph (WNW)    
Max Wind Speed 23 mph    
Max Gust Speed 29 mph    
Visibility 7 miles    
Events      
T = Trace of Precipitation, MM = Missing Value Source: NWS Daily Summary

Daily Weather History Graph

Daily Weather History Graph

Search for Another Location

Airport or City:

Trip Planner

Search our weather history database for the weather conditions in past years. The results will help you decide how hot, cold, wet, or windy it might be!

Date:

Astronomy

Jan. 06, 2013 Rise Set
Actual Time 7:29 AM CST 4:47 PM CST
Civil Twilight 6:58 AM CST 5:18 PM CST
Nautical Twilight 6:23 AM CST 5:53 PM CST
Astronomical Twilight 5:49 AM CST 6:27 PM CST
Moon 1:42 AM CST (1/6) 12:16 PM CST (1/6)
Length of Visible Light 10h 20m
Length of Day
9h 18m
Waning Crescent, 33% of the Moon is Illuminated
Jan 6
Waning Crescent
Jan 11
New
Jan 18
First Quarter
Jan 26
Full
Feb 3
Last Quarter

Hourly Weather History & Observations

Time (CST) Temp. Windchill Dew Point Humidity Pressure Visibility Wind Dir Wind Speed Gust Speed Precip Events Conditions
12:52 AM 26.1 °F 12.7 °F 21.0 °F 81% 30.01 in 8.0 mi WNW 18.4 mph - N/A   Clear
1:52 AM 24.1 °F 10.6 °F 19.0 °F 81% 30.03 in 8.0 mi WNW 17.3 mph - N/A   Clear
2:52 AM 21.9 °F 6.9 °F 17.1 °F 82% 30.05 in 7.0 mi WNW 19.6 mph 25.3 mph N/A   Clear
3:17 AM 21.2 °F 6.0 °F 17.6 °F 86% 30.03 in 5.0 mi West 19.6 mph - N/A   Mostly Cloudy
3:52 AM 21.9 °F 6.2 °F 17.1 °F 82% 30.06 in 5.0 mi WNW 21.9 mph 26.5 mph N/A   Haze
4:24 AM 19.4 °F 4.1 °F 15.8 °F 86% 30.05 in 6.0 mi NW 18.4 mph - N/A   Haze
4:52 AM 18.0 °F 1.3 °F 12.9 °F 81% 30.10 in 6.0 mi WNW 20.7 mph 28.8 mph N/A   Haze
5:06 AM 17.6 °F 2.7 °F 12.2 °F 79% 30.07 in 5.0 mi WNW 16.1 mph - N/A   Haze
5:52 AM 16.0 °F 1.1 °F 10.9 °F 81% 30.12 in 6.0 mi WNW 15.0 mph - N/A   Haze
6:52 AM 15.1 °F 0.5 °F 10.9 °F 84% 30.15 in 5.0 mi WNW 13.8 mph - N/A   Clear
7:48 AM 15.8 °F 0.3 °F 10.4 °F 79% 30.14 in 4.0 mi WNW 16.1 mph 24.2 mph N/A   Mostly Cloudy
7:52 AM 16.0 °F 1.1 °F 10.9 °F 81% 30.17 in 4.0 mi WNW 15.0 mph - N/A   Haze
8:52 AM 17.1 °F 3.6 °F 12.0 °F 81% 30.20 in 5.0 mi WNW 12.7 mph - N/A   Haze
9:52 AM 19.0 °F 4.5 °F 15.1 °F 85% 30.23 in 5.0 mi WNW 16.1 mph - N/A   Mostly Cloudy
10:12 AM 19.4 °F 4.5 °F 15.8 °F 86% 30.21 in 5.0 mi West 17.3 mph - N/A   Mostly Cloudy
10:31 AM 19.4 °F 3.6 °F 15.8 °F 86% 30.22 in 4.0 mi WNW 19.6 mph 24.2 mph N/A   Mostly Cloudy
10:52 AM 19.0 °F 4.5 °F 17.1 °F 92% 30.26 in 2.5 mi WNW 16.1 mph - N/A   Overcast
11:27 AM 19.4 °F 5.5 °F 17.6 °F 93% 30.22 in 3.0 mi WNW 15.0 mph - N/A   Overcast
11:52 AM 21.0 °F 8.1 °F 18.0 °F 88% 30.27 in 4.0 mi NW 13.8 mph - N/A   Overcast
12:52 PM 21.9 °F 9.8 °F 18.0 °F 85% 30.26 in 5.0 mi WNW 12.7 mph - N/A   Overcast
1:05 PM 23.0 °F 10.6 °F 17.6 °F 80% 30.22 in 6.0 mi WNW 13.8 mph - N/A   Haze
1:16 PM 23.0 °F 10.1 °F 17.6 °F 80% 30.23 in 7.0 mi WNW 15.0 mph - N/A   Partly Cloudy
1:52 PM 25.0 °F 12.6 °F 18.0 °F 75% 30.26 in 9.0 mi WNW 15.0 mph - N/A   Clear
2:52 PM 26.1 °F 15.6 °F 18.0 °F 71% 30.29 in 10.0 mi WNW 11.5 mph - N/A   Clear
3:52 PM 25.0 °F 14.2 °F 15.1 °F 66% 30.31 in 10.0 mi WNW 11.5 mph - N/A   Clear
4:52 PM 23.0 °F 17.0 °F 15.1 °F 72% 30.32 in 10.0 mi NW 4.6 mph - N/A   Clear
5:52 PM 21.0 °F 13.4 °F 15.1 °F 78% 30.34 in 10.0 mi West 5.8 mph - N/A   Clear
6:52 PM 17.1 °F - 12.9 °F 84% 30.36 in 10.0 mi Calm Calm - N/A   Clear
7:52 PM 18.0 °F 12.7 °F 12.0 °F 78% 30.35 in 10.0 mi SW 3.5 mph - N/A   Clear
8:52 PM 16.0 °F 10.4 °F 12.0 °F 84% 30.35 in 10.0 mi SSW 3.5 mph - N/A   Clear
9:52 PM 16.0 °F 10.4 °F 10.9 °F 81% 30.35 in 10.0 mi South 3.5 mph - N/A   Clear
10:52 PM 17.1 °F 10.0 °F 12.0 °F 81% 30.34 in 10.0 mi SSE 4.6 mph - N/A   Clear
11:52 PM 14.0 °F 5.1 °F 10.0 °F 84% 30.34 in 10.0 mi SSE 5.8 mph - N/A   Clear